Starlink 32090

operational
NORAD ID: 59691 Int'l Des: 2024-086 Owner: SPXS Country: US Constellation: starlink
LEOCIRCULAR

关于 Starlink 32090

正在加载描述...

实时位置

正在加载3D地球...

即将过境

高度历史

Altitude vs Time

uPlot chart will show altitude changes over time

两行轨道根数

1 59691U 24086K 25349.90581843 -.00000256 00000-0 21598-6 0 9996
2 59691 43.0010 176.9365 0000999 272.6580 87.4157 15.27577311 91252
Epoch: Dec 15, 2025 • Age: 14 hours

当前状态

高度 482.2 km
速度 7.63 km/s
星下点 7.34°N, 82.53°W
发射日期 May 8, 2024
运行时间 1.6 years
类型 internet

技术详情

分类 Payload
质量 730.00 kg
干质量 700.00 kg
总质量 730.00 kg
长度 0.30 m
直径 4.10 m
跨度 29.00 m
形状 Box + pan
制造商 SPXS
平台类型 Starlink V2M
阶段状态 In Orbit
所有者/国家 SPXS/US

大型星座

Loading constellations...